Weather History for Springfield, MO

Change the Weather History Date:

Tuesday, February 12, 2013

  Actual Average Record
Temperature  
Mean Temperature 35 °F 36 °F  
Max Temperature 46 °F 47 °F 81 °F (1962)
Min Temperature 24 °F 25 °F -29 °F (1899)
Degree Days  
Heating Degree Days 30 29  
Month to date heating degree days 297 361  
Since 1 July heating degree days 2813 3174  
Cooling Degree Days 0 0  
Month to date cooling degree days 0 0  
Year to date cooling degree days 0 0  
Moisture  
Dew Point 29 °F    
Average Humidity 71    
Maximum Humidity 96    
Minimum Humidity 45    
Precipitation  
Precipitation 0.07 in 0.10 in 1.20 in (1896)
Month to date precipitation 0.61 0.98  
Year to date precipitation 3.67 3.45  
Snow  
Snow T in - - ()
Month to date snowfall T  
Since 1 July snowfall 1.7  
Snow Depth 0.00 in    
Sea Level Pressure  
Sea Level Pressure 30.03 in    
Wind  
Wind Speed 5 mph (NE)    
Max Wind Speed 16 mph    
Max Gust Speed 19 mph    
Visibility 8 miles    
Events Rain , Snow    
T = Trace of Precipitation, MM = Missing Value Source: NWS Daily Summary

Daily Weather History Graph

Daily Weather History Graph

Search for Another Location

Airport:

Trip Planner

Search our weather history database for the weather conditions in past years. The results will help you decide how hot, cold, wet, or windy it might be!

Date:

Astronomy

Feb. 12, 2013 Rise Set
Actual Time 7:05 AM CST 5:50 PM CST
Civil Twilight 6:38 AM CST 6:17 PM CST
Nautical Twilight 6:08 AM CST 6:47 PM CST
Astronomical Twilight 5:37 AM CST 7:18 PM CST
Moon 8:07 AM CST (2/12) 8:46 PM CST (2/12)
Length of Visible Light 11h 38m
Length of Day
10h 44m
Waxing Crescent, 7% of the Moon is Illuminated
Feb 12
Waxing Crescent
Feb 17
First Quarter
Feb 25
Full
Mar 4
Last Quarter
Mar 11
New

Hourly Weather History & Observations

Time (CST) Temp. Windchill Dew Point Humidity Pressure Visibility Wind Dir Wind Speed Gust Speed Precip Events Conditions
12:52 AM 27.0 °F - 21.9 °F 81% 30.18 in 10.0 mi Calm Calm - N/A   Clear
1:52 AM 27.0 °F - 21.0 °F 78% 30.16 in 10.0 mi Calm Calm - N/A   Clear
2:52 AM 27.0 °F 23.0 °F 21.9 °F 81% 30.14 in 10.0 mi ENE 3.5 mph - N/A   Clear
3:52 AM 28.0 °F 24.2 °F 21.9 °F 78% 30.12 in 10.0 mi East 3.5 mph - N/A   Clear
4:52 AM 30.9 °F 27.5 °F 23.0 °F 72% 30.10 in 10.0 mi ENE 3.5 mph - N/A   Clear
5:52 AM 28.0 °F - 21.9 °F 78% 30.12 in 10.0 mi Calm Calm - N/A   Clear
6:52 AM 30.0 °F - 23.0 °F 75% 30.12 in 10.0 mi Calm Calm - N/A   Clear
7:52 AM 30.9 °F 27.5 °F 25.0 °F 79% 30.15 in 10.0 mi NNE 3.5 mph - N/A   Partly Cloudy
8:52 AM 35.1 °F 29.3 °F 26.1 °F 70% 30.10 in 10.0 mi NE 6.9 mph - N/A   Clear
9:52 AM 37.9 °F 33.5 °F 27.0 °F 65% 30.11 in 10.0 mi East 5.8 mph - N/A   Partly Cloudy
10:52 AM 43.0 °F 38.8 °F 27.0 °F 53% 30.10 in 10.0 mi East 6.9 mph - N/A   Clear
11:52 AM 44.1 °F 39.5 °F 26.1 °F 49% 30.09 in 10.0 mi East 8.1 mph - N/A   Overcast
12:52 PM 44.1 °F 42.5 °F 28.0 °F 53% 30.04 in 10.0 mi East 3.5 mph - N/A   Overcast
1:52 PM 46.0 °F 44.8 °F 27.0 °F 47% 30.03 in 10.0 mi SSE 3.5 mph - N/A   Overcast
2:52 PM 45.0 °F 43.5 °F 26.1 °F 48% 30.00 in 10.0 mi East 3.5 mph - N/A   Overcast
3:52 PM 45.0 °F 41.2 °F 27.0 °F 49% 29.97 in 10.0 mi NE 6.9 mph - N/A   Overcast
4:52 PM 44.1 °F 40.8 °F 28.0 °F 53% 29.96 in 10.0 mi NNE 5.8 mph - N/A   Overcast
5:52 PM 41.0 °F 34.3 °F 32.0 °F 70% 29.96 in 10.0 mi ENE 11.5 mph - 0.01 in Rain Light Rain
6:38 PM 37.9 °F 30.9 °F 33.1 °F 83% 29.94 in 10.0 mi North 10.4 mph - 0.01 in Rain Light Rain
6:50 PM 37.4 °F 30.8 °F 33.8 °F 87% 29.95 in 10.0 mi North 9.2 mph - 0.01 in Rain Light Rain
6:52 PM 37.9 °F 31.5 °F 33.1 °F 83% 29.98 in 10.0 mi North 9.2 mph - 0.01 in Rain Light Rain
7:52 PM 36.0 °F 27.1 °F 34.0 °F 93% 29.99 in 8.0 mi NNW 13.8 mph - 0.00 in Rain Light Rain
8:00 PM 35.1 °F 25.9 °F 33.1 °F 92% 29.96 in 9.0 mi NNW 13.8 mph - 0.00 in Rain Light Rain
8:25 PM 34.0 °F 24.6 °F 33.1 °F 96% 29.95 in 4.0 mi NNW 13.8 mph - 0.00 in Snow Light Snow
8:40 PM 34.0 °F 24.2 °F 33.1 °F 96% 29.95 in 6.0 mi NNW 15.0 mph - 0.00 in Rain Light Rain
8:52 PM 34.0 °F 26.0 °F 33.1 °F 96% 29.99 in 6.0 mi North 10.4 mph - 0.01 in Rain Light Rain
9:26 PM 34.0 °F 28.0 °F 33.1 °F 96% 29.97 in 2.5 mi NNE 6.9 mph - 0.01 in Snow Light Snow
9:52 PM 33.1 °F 26.9 °F 32.0 °F 96% 30.00 in 2.0 mi North 6.9 mph - 0.02 in Snow Light Snow
10:17 PM 33.1 °F 28.7 °F 32.0 °F 96% 29.97 in 3.0 mi North 4.6 mph - 0.00 in Snow Light Snow
10:25 PM 33.1 °F 30.0 °F 33.1 °F 100% 29.97 in 2.5 mi North 3.5 mph - 0.00 in Snow Light Snow
10:34 PM 33.1 °F - 32.0 °F 96% 29.97 in 3.0 mi Calm Calm - 0.00 in Snow Light Snow
10:49 PM 33.8 °F - 32.0 °F 93% 29.97 in 2.5 mi Calm Calm - 0.01 in Snow Light Snow
10:52 PM 33.1 °F 30.0 °F 32.0 °F 96% 29.99 in 2.5 mi North 3.5 mph - 0.01 in Snow Light Snow
11:21 PM 33.1 °F - 32.0 °F 96% 29.96 in 2.0 mi Calm Calm - 0.00 in Snow Light Snow
11:52 PM 33.1 °F - 32.0 °F 96% 29.98 in 2.5 mi Calm Calm - 0.01 in Snow Light Snow